This is the latest recevied weather packets stored in our database for station/object KC0UFP. If no packets are shown the sender has not sent any weather packets the latest 10 day(s).
| Time | Temp. | Humidity | Pressure | Rain* | Wind** | Luminosity | Snow |
|---|---|---|---|---|---|---|---|
| 1777572606 | 16.67° C | 43% | 1017.9 hPa | 0 mm | - | 820 W/m² | - |
| 1777572301 | 16.67° C | 41% | 1017.9 hPa | 0 mm | - | 983 W/m² | - |
| 1777571997 | 16.11° C | 48% | 1018 hPa | 0 mm | - | 902 W/m² | - |
| 1777571697 | 16.67° C | 45% | 1018.1 hPa | 0 mm | - | 847 W/m² | - |
| 1777571395 | 16.11° C | 46% | 1018.2 hPa | 0 mm | - | 889 W/m² | - |
| 1777571091 | 16.11° C | 47% | 1018.2 hPa | 0 mm | - | 876 W/m² | - |
| 1777570787 | 16.67° C | 45% | 1018.2 hPa | 0 mm | - | 909 W/m² | - |
| 1777570483 | 16.67° C | 42% | 1018.6 hPa | 0 mm | - | 805 W/m² | - |
| 1777570179 | 16.67° C | 42% | 1018.3 hPa | 0 mm | - | 861 W/m² | - |
| 1777569876 | 15.56° C | 43% | 1018.2 hPa | 0 mm | - | 851 W/m² | - |
| 1777569572 | 15.56° C | 45% | 1018.3 hPa | 0 mm | - | 907 W/m² | - |
| 1777569268 | 16.11° C | 49% | 1018.1 hPa | 0 mm | - | 969 W/m² | - |
| 1777568965 | 16.67° C | 47% | 1018 hPa | 0 mm | - | 985 W/m² | - |
| 1777568661 | 15.56° C | 48% | 1018.2 hPa | 0 mm | - | 1030 W/m² | - |
| 1777568359 | 15.56° C | 52% | 1018 hPa | 0 mm | - | 922 W/m² | - |
| 1777568056 | 15.56° C | 46% | 1018.3 hPa | 0 mm | - | 964 W/m² | - |
| 1777567752 | 15.56° C | 53% | 1018.1 hPa | 0 mm | - | 1047 W/m² | - |
| 1777567449 | 15.56° C | 51% | 1018.2 hPa | 0 mm | - | 1048 W/m² | - |
| 1777567147 | 15.56° C | 50% | 1018.3 hPa | 0 mm | - | 1057 W/m² | - |
| 1777566844 | 15.56° C | 47% | 1018.3 hPa | 0 mm | - | 862 W/m² | - |
| 1777566542 | 15.56° C | 40% | 1018.3 hPa | 0 mm | - | 831 W/m² | - |
| 1777566239 | 15.56° C | 49% | 1018.6 hPa | 0 mm | - | 971 W/m² | - |
| 1777565936 | 15.56° C | 52% | 1018.9 hPa | 0 mm | - | 918 W/m² | - |
| 1777565631 | 15.56° C | 52% | 1018.9 hPa | 0 mm | - | 864 W/m² | - |
| 1777565328 | 15° C | 51% | 1018.8 hPa | 0 mm | - | 831 W/m² | - |
* Rain latest hour (hover to see other rain measurements)
** Current wind speed in m/s (hover to see current wind gust speed)